AFR1049 LIMF-ELLX

Flight info

Callsign AFR1049
Flight time 0h 57m
Altitude 30000
Route KUKEV DCT MOLUS DCT GILIR DCT PENDU DCT IXILU DCT EPL G21 GIVOR
Aircraft A319/M-SDE3FGHIRWY/LB1

Departure

Time 2026-04-27 09:53
Airport Turin Airport (LIMF)

Arrival

Time 2026-04-27 10:50
Airport Luxembourg-Findel International Airport (ELLX)
Time Latitude Longitude Altitude Speed Heading
2026-04-27 09:43 45.19493 7.64599 962 ft 0 kts 92°
2026-04-27 09:49 45.19493 7.64603 963 ft 1 kts 92°
2026-04-27 09:50 45.19487 7.64635 964 ft 5 kts 107°
2026-04-27 09:50 45.19452 7.64678 965 ft 9 kts 165°
2026-04-27 09:50 45.19382 7.64677 966 ft 11 kts 184°
2026-04-27 09:50 45.19290 7.64663 964 ft 16 kts 183°
2026-04-27 09:51 45.19155 7.64662 959 ft 23 kts 178°
2026-04-27 09:51 45.18986 7.64649 955 ft 25 kts 182°
2026-04-27 09:51 45.18798 7.64642 944 ft 28 kts 183°
2026-04-27 09:51 45.18653 7.64648 942 ft 18 kts 162°
2026-04-27 09:52 45.18613 7.64805 939 ft 19 kts 85°
2026-04-27 09:52 45.18710 7.64880 942 ft 16 kts
2026-04-27 09:52 45.18912 7.64895 950 ft 62 kts
2026-04-27 09:52 45.19591 7.64943 967 ft 131 kts
2026-04-27 09:53 45.20646 7.65007 1300 ft 153 kts
2026-04-27 09:53 45.21676 7.65037 2081 ft 147 kts
2026-04-27 09:53 45.22709 7.65099 2709 ft 151 kts
2026-04-27 09:53 45.23832 7.65172 3174 ft 173 kts
2026-04-27 09:54 45.25110 7.65258 3563 ft 196 kts
2026-04-27 09:54 45.26514 7.65682 3893 ft 222 kts 33°
2026-04-27 09:54 45.27515 7.67421 4388 ft 241 kts 73°
2026-04-27 09:54 45.27563 7.69826 5192 ft 251 kts 100°
2026-04-27 09:55 45.27103 7.72218 6244 ft 251 kts 109°
2026-04-27 09:55 45.26505 7.74564 7213 ft 255 kts 111°
2026-04-27 09:55 45.25254 7.79403 9049 ft 267 kts 112°
2026-04-27 09:56 45.24307 7.81684 9971 ft 271 kts 128°
2026-04-27 09:56 45.23168 7.83838 10857 ft 275 kts 127°
2026-04-27 09:56 45.22055 7.86024 11717 ft 279 kts 126°
2026-04-27 09:56 45.20925 7.88281 12588 ft 282 kts 125°
2026-04-27 09:57 45.19782 7.90572 13434 ft 287 kts 125°
2026-04-27 09:57 45.18623 7.92901 14273 ft 291 kts 125°
2026-04-27 09:57 45.17546 7.95343 15008 ft 295 kts 112°
2026-04-27 09:57 45.17132 7.98179 15732 ft 297 kts 88°
2026-04-27 09:58 45.17540 8.01066 16266 ft 308 kts 64°
2026-04-27 09:58 45.18818 8.03544 16741 ft 318 kts 41°
2026-04-27 09:58 45.20501 8.05618 17447 ft 323 kts 38°
2026-04-27 09:58 45.22432 8.07232 18179 ft 325 kts 17°
2026-04-27 09:59 45.24663 8.07658 18856 ft 326 kts 354°
2026-04-27 09:59 45.26842 8.06802 19515 ft 328 kts 332°
2026-04-27 09:59 45.28630 8.04791 20182 ft 331 kts 312°
2026-04-27 09:59 45.30167 8.02339 20870 ft 334 kts 311°
2026-04-27 10:00 45.31573 7.99703 21554 ft 336 kts 301°
2026-04-27 10:00 45.32573 7.96669 22011 ft 348 kts 289°
2026-04-27 10:00 45.33183 7.93241 22144 ft 367 kts 283°
2026-04-27 10:00 45.33753 7.89616 22282 ft 385 kts 283°
2026-04-27 10:01 45.34349 7.85850 22608 ft 395 kts 284°
2026-04-27 10:01 45.34962 7.82013 23119 ft 400 kts 284°
2026-04-27 10:01 45.35586 7.78136 23675 ft 404 kts 284°
2026-04-27 10:01 45.36214 7.74228 24144 ft 407 kts 284°
2026-04-27 10:02 45.36843 7.70288 24619 ft 409 kts 284°
2026-04-27 10:02 45.37259 7.67667 24930 ft 411 kts 284°
2026-04-27 10:02 45.38245 7.62459 25535 ft 413 kts 292°
2026-04-27 10:02 45.39036 7.59937 25841 ft 414 kts 298°
2026-04-27 10:03 45.40582 7.56475 26295 ft 416 kts 308°
2026-04-27 10:03 45.42527 7.53423 26764 ft 418 kts 315°
2026-04-27 10:03 45.44592 7.50498 27207 ft 420 kts 315°
2026-04-27 10:03 45.47333 7.46585 27779 ft 422 kts 315°
2026-04-27 10:04 45.49412 7.43605 28200 ft 425 kts 315°
2026-04-27 10:04 45.50820 7.41582 28489 ft 426 kts 315°
2026-04-27 10:04 45.52916 7.38573 28904 ft 429 kts 315°
2026-04-27 10:04 45.55025 7.35552 29324 ft 431 kts 315°
2026-04-27 10:05 45.57146 7.32516 29743 ft 433 kts 315°
2026-04-27 10:05 45.59278 7.29463 30110 ft 435 kts 315°
2026-04-27 10:05 45.63470 7.23445 30194 ft 424 kts 317°
2026-04-27 10:06 45.68324 7.18786 30199 ft 421 kts 335°
2026-04-27 10:06 45.73649 7.15302 30176 ft 421 kts 335°
2026-04-27 10:07 45.78959 7.11788 30174 ft 419 kts 335°
2026-04-27 10:07 45.84254 7.08271 30173 ft 420 kts 334°
2026-04-27 10:08 45.89557 7.04758 30174 ft 420 kts 334°
2026-04-27 10:08 45.94860 7.01244 30176 ft 419 kts 334°
2026-04-27 10:09 46.00153 6.97724 30177 ft 419 kts 334°
2026-04-27 10:09 46.05437 6.94199 30176 ft 419 kts 334°
2026-04-27 10:10 46.10717 6.90664 30171 ft 418 kts 334°
2026-04-27 10:10 46.15954 6.87146 30168 ft 418 kts 334°
2026-04-27 10:11 46.21222 6.83607 30181 ft 417 kts 334°
2026-04-27 10:11 46.26486 6.80067 30170 ft 417 kts 334°
2026-04-27 10:12 46.31740 6.76520 30154 ft 417 kts 334°
2026-04-27 10:12 46.36997 6.72967 30160 ft 418 kts 334°
2026-04-27 10:13 46.42263 6.69396 30182 ft 417 kts 334°
2026-04-27 10:13 46.47509 6.65800 30184 ft 417 kts 333°
2026-04-27 10:14 46.52723 6.62124 30182 ft 417 kts 333°
2026-04-27 10:14 46.57932 6.58433 30180 ft 416 kts 333°
2026-04-27 10:15 46.63142 6.54744 30175 ft 416 kts 333°
2026-04-27 10:15 46.68352 6.51060 30174 ft 416 kts 333°
2026-04-27 10:16 46.73557 6.47367 30157 ft 416 kts 332°
2026-04-27 10:16 46.78772 6.43659 30162 ft 417 kts 332°
2026-04-27 10:17 46.83987 6.39943 30167 ft 417 kts 332°
2026-04-27 10:17 46.89203 6.36218 30153 ft 417 kts 332°
2026-04-27 10:18 46.94382 6.32505 30152 ft 417 kts 332°
2026-04-27 10:18 46.99594 6.28763 30154 ft 417 kts 332°
2026-04-27 10:19 47.04809 6.25013 30163 ft 418 kts 332°
2026-04-27 10:19 47.10028 6.21261 30152 ft 418 kts 332°
2026-04-27 10:20 47.15246 6.17504 30139 ft 418 kts 332°
2026-04-27 10:20 47.20472 6.13729 30139 ft 419 kts 332°
2026-04-27 10:21 47.25700 6.09942 30149 ft 419 kts 331°
2026-04-27 10:21 47.30937 6.06141 30151 ft 420 kts 331°
2026-04-27 10:22 47.36530 6.03587 30147 ft 426 kts 349°
2026-04-27 10:22 47.42487 6.03424 30151 ft 429 kts 358°
2026-04-27 10:23 47.48462 6.03555 30163 ft 430 kts 358°
2026-04-27 10:23 47.54441 6.03695 30165 ft 429 kts 358°
2026-04-27 10:24 47.60415 6.03841 30170 ft 429 kts 358°
2026-04-27 10:24 47.66385 6.03975 30182 ft 429 kts 357°
2026-04-27 10:25 47.72355 6.04109 30174 ft 429 kts 357°
2026-04-27 10:25 47.78324 6.04250 30171 ft 429 kts 358°
2026-04-27 10:26 47.84256 6.04434 30160 ft 429 kts 358°
2026-04-27 10:26 47.90227 6.04639 30165 ft 429 kts 358°
2026-04-27 10:27 47.96201 6.04828 30161 ft 430 kts 358°
2026-04-27 10:27 48.02187 6.05007 30173 ft 430 kts 358°
2026-04-27 10:28 48.08176 6.05194 30197 ft 431 kts 358°
2026-04-27 10:28 48.14169 6.05378 30196 ft 431 kts 358°
2026-04-27 10:29 48.20164 6.05571 30202 ft 431 kts 358°
2026-04-27 10:29 48.26163 6.05763 30205 ft 431 kts 358°
2026-04-27 10:30 48.32108 6.07219 30210 ft 439 kts 16°
2026-04-27 10:30 48.37541 6.11529 30205 ft 445 kts 30°
2026-04-27 10:31 48.42741 6.16583 30203 ft 445 kts 30°
2026-04-27 10:31 48.48051 6.21714 29109 ft 461 kts 30°
2026-04-27 10:32 48.50742 6.24320 27836 ft 467 kts 30°
2026-04-27 10:32 48.53440 6.26956 27258 ft 457 kts 30°
2026-04-27 10:32 48.56089 6.29556 26537 ft 451 kts 30°
2026-04-27 10:32 48.58704 6.32124 25848 ft 446 kts 30°
2026-04-27 10:33 48.61289 6.34669 25169 ft 441 kts 30°
2026-04-27 10:33 48.63906 6.37029 24490 ft 434 kts 23°
2026-04-27 10:33 48.66688 6.38654 23840 ft 425 kts 13°
2026-04-27 10:33 48.69560 6.39491 23153 ft 416 kts
2026-04-27 10:34 48.72423 6.39778 22575 ft 408 kts
2026-04-27 10:34 48.75234 6.40056 22020 ft 403 kts
2026-04-27 10:34 48.78013 6.40345 21487 ft 397 kts
2026-04-27 10:34 48.80754 6.40635 20973 ft 393 kts
2026-04-27 10:35 48.83469 6.40919 20485 ft 390 kts
2026-04-27 10:35 48.86163 6.41198 19983 ft 387 kts
2026-04-27 10:35 48.88835 6.41471 19480 ft 384 kts
2026-04-27 10:35 48.91493 6.41742 18990 ft 381 kts
2026-04-27 10:36 48.94135 6.42012 18441 ft 380 kts
2026-04-27 10:36 48.96761 6.42277 17882 ft 376 kts
2026-04-27 10:36 48.99362 6.42539 17337 ft 373 kts
2026-04-27 10:36 49.01935 6.42801 16788 ft 369 kts
2026-04-27 10:37 49.04487 6.43062 16249 ft 366 kts
2026-04-27 10:37 49.07022 6.43320 15712 ft 364 kts
2026-04-27 10:37 49.09540 6.43578 15172 ft 362 kts
2026-04-27 10:37 49.12046 6.43835 14626 ft 360 kts
2026-04-27 10:38 49.14504 6.44086 14090 ft 358 kts
2026-04-27 10:38 49.16987 6.44339 13495 ft 356 kts
2026-04-27 10:38 49.19450 6.44588 12943 ft 353 kts
2026-04-27 10:38 49.21881 6.44392 12376 ft 348 kts 349°
2026-04-27 10:39 49.24198 6.43409 11817 ft 344 kts 337°
2026-04-27 10:39 49.26373 6.41928 11252 ft 341 kts 334°
2026-04-27 10:39 49.28529 6.40446 10804 ft 336 kts 334°
2026-04-27 10:39 49.30612 6.39024 10681 ft 320 kts 334°
2026-04-27 10:40 49.32603 6.37662 10560 ft 307 kts 334°
2026-04-27 10:40 49.34515 6.36350 10436 ft 295 kts 334°
2026-04-27 10:40 49.36361 6.35080 10290 ft 286 kts 334°
2026-04-27 10:40 49.38147 6.33870 10185 ft 276 kts 337°
2026-04-27 10:41 49.39967 6.33118 10045 ft 267 kts 347°
2026-04-27 10:41 49.41755 6.32550 9918 ft 258 kts 347°
2026-04-27 10:41 49.43494 6.31988 9706 ft 253 kts 347°
2026-04-27 10:41 49.45205 6.31437 9406 ft 251 kts 347°
2026-04-27 10:42 49.46906 6.30890 9085 ft 249 kts 346°
2026-04-27 10:42 49.48598 6.30335 8759 ft 247 kts 344°
2026-04-27 10:42 49.50155 6.29291 8410 ft 244 kts 324°
2026-04-27 10:42 49.51387 6.27535 8054 ft 242 kts 306°
2026-04-27 10:43 49.52187 6.25279 7712 ft 241 kts 288°
2026-04-27 10:43 49.52495 6.22767 7387 ft 239 kts 272°
2026-04-27 10:43 49.52597 6.20220 7046 ft 238 kts 272°
2026-04-27 10:43 49.52703 6.17681 6724 ft 238 kts 272°
2026-04-27 10:44 49.52808 6.15162 6388 ft 235 kts 273°
2026-04-27 10:44 49.52913 6.12685 6190 ft 229 kts 273°
2026-04-27 10:44 49.53016 6.10172 5559 ft 242 kts 274°
2026-04-27 10:44 49.53123 6.07528 4900 ft 254 kts 274°
2026-04-27 10:45 49.53236 6.04782 4201 ft 266 kts 275°
2026-04-27 10:45 49.53360 6.01817 3455 ft 280 kts 275°
2026-04-27 10:45 49.53635 5.98885 3070 ft 268 kts 293°
2026-04-27 10:45 49.54721 5.96815 2980 ft 239 kts 333°
2026-04-27 10:46 49.56208 5.96365 2985 ft 207 kts 16°
2026-04-27 10:46 49.57285 5.97512 3021 ft 182 kts 62°
2026-04-27 10:46 49.57423 5.99330 3029 ft 171 kts 100°
2026-04-27 10:46 49.57019 6.00983 3014 ft 167 kts 115°
2026-04-27 10:47 49.56595 6.02612 3018 ft 161 kts 101°
2026-04-27 10:47 49.56559 6.04305 3017 ft 158 kts 80°
2026-04-27 10:47 49.56939 6.05878 2981 ft 159 kts 61°
2026-04-27 10:47 49.57493 6.07351 2849 ft 158 kts 60°
2026-04-27 10:48 49.58035 6.08796 2679 ft 149 kts 61°
2026-04-27 10:48 49.58548 6.10167 2490 ft 144 kts 60°
2026-04-27 10:48 49.59042 6.11488 2313 ft 141 kts 60°
2026-04-27 10:48 49.59534 6.12805 2118 ft 140 kts 61°
2026-04-27 10:49 49.60007 6.14081 1912 ft 133 kts 60°
2026-04-27 10:49 49.60461 6.15270 1692 ft 130 kts 60°
2026-04-27 10:49 49.60898 6.16489 1543 ft 128 kts 63°
2026-04-27 10:49 49.61360 6.17676 1350 ft 131 kts 62°
2026-04-27 10:50 49.61820 6.18930 1220 ft 133 kts 62°
2026-04-27 10:50 49.62224 6.20038 1216 ft 94 kts 61°
2026-04-27 10:50 49.62411 6.20533 1231 ft 27 kts 48°
2026-04-27 10:50 49.62560 6.20632 1239 ft 18 kts 19°
2026-04-27 10:51 49.62670 6.20695 1238 ft 15 kts 22°
2026-04-27 10:51 49.62769 6.20758 1247 ft 16 kts 23°
2026-04-27 10:51 49.62836 6.20867 1237 ft 15 kts 62°
2026-04-27 10:51 49.62880 6.21010 1233 ft 14 kts 67°
2026-04-27 10:52 49.62914 6.21127 1233 ft 9 kts 64°
2026-04-27 10:52 49.62944 6.21218 1233 ft 11 kts 63°
2026-04-27 10:52 49.62982 6.21336 1230 ft 14 kts 64°
2026-04-27 10:52 49.63031 6.21495 1227 ft 18 kts 65°
2026-04-27 10:53 49.63086 6.21679 1225 ft 20 kts 64°
2026-04-27 10:53 49.63169 6.21949 1228 ft 5 kts 61°
2026-04-27 10:53 49.63189 6.22000 1228 ft 6 kts 60°
2026-04-27 10:54 49.63209 6.22063 1228 ft 8 kts 64°
2026-04-27 10:54 49.63260 6.22119 1228 ft 12 kts 345°
2026-04-27 10:54 49.63324 6.22030 1230 ft 12 kts 314°
2026-04-27 10:54 49.63353 6.21909 1230 ft 14 kts 258°
2026-04-27 10:55 49.63331 6.21816 1230 ft 14 kts 243°
2026-04-27 10:55 49.63272 6.21622 1230 ft 15 kts 271°
2026-04-27 10:55 49.63273 6.21547 1230 ft 10 kts 287°
2026-04-27 10:55 49.63320 6.21498 1230 ft 0 kts 332°